Wind_Speed
12 12 12 13 13 13 13 13 13 13 13 12 13 13 12 12 12 12 12 12 11 11 11 11 11 10 11 11 10 10 10 10 9 9 10 9 9 9 9 9 8 8 8
14 14 14 14 15 15 15 15 15 15 15 14 14 14 14 14 14 14 14 13 13 13 12 12 12 12 11 11 12 12 12 11 11 11 11 11 11 10 10 10 10 9 9
16 16 16 17 17 17 17 17 17 17 17 17 17 17 16 16 16 16 15 15 15 15 14 14 14 14 13 13 13 14 14 14 13 13 12 12 12 12 11 12 12 11 11
17 17 18 18 19 19 19 19 20 20 19 19 19 19 19 18 18 17 17 17 17 17 17 16 15 15 15 15 15 15 15 16 16 15 15 14 14 13 12 13 13 13 13
18 18 19 19 20 20 21 21 21 21 21 21 21 21 21 20 20 19 19 19 19 18 18 18 17 17 18 17 17 17 17 17 18 17 17 17 16 15 15 14 15 14 14
20 20 20 20 21 21 21 21 21 22 22 22 22 23 23 22 22 21 21 21 21 20 20 20 19 19 19 20 19 19 19 19 19 19 19 19 18 17 17 16 16 16 16
22 23 22 22 22 22 22 23 23 23 23 23 24 24 24 25 24 24 24 23 23 23 23 22 22 22 21 22 21 21 21 21 21 20 20 20 20 19 19 18 18 18 18
23 24 24 23 24 24 23 24 24 25 25 26 26 26 26 27 27 27 27 26 26 25 25 25 25 24 24 24 23 23 23 23 22 22 22 22 21 21 21 20 20 20 20
25 25 25 25 25 25 26 26 26 26 27 27 28 28 28 29 29 29 28 28 28 28 27 27 27 27 26 26 26 25 25 25 25 24 24 24 23 23 22 22 22 22 22
26 26 26 26 27 27 27 27 28 28 28 29 29 29 30 30 30 31 31 30 30 30 30 30 29 29 28 28 28 28 27 27 27 27 26 26 26 26 25 25 24 24 24
26 27 27 27 28 29 29 29 29 30 30 30 30 30 30 31 31 32 32 32 32 32 31 31 32 31 31 30 30 30 29 29 29 29 29 28 28 28 28 28 27 26 26
27 28 28 28 29 30 30 31 31 32 31 31 31 31 31 32 32 32 33 33 34 33 32 33 33 33 33 33 32 32 32 32 32 32 31 31 31 30 30 30 30 29 29
28 29 29 29 30 31 32 33 33 33 33 33 32 32 32 33 33 34 35 35 35 35 35 34 35 35 35 35 35 35 34 34 34 34 34 34 33 33 33 32 32 32 31
29 29 30 31 31 32 33 34 34 34 34 34 34 34 34 34 35 36 37 37 37 37 37 37 37 37 37 37 37 37 37 37 36 36 36 36 36 36 35 35 34 34 34
30 31 32 32 33 33 34 35 35 35 35 36 36 36 36 37 37 38 38 38 39 39 39 39 40 39 39 39 39 39 39 39 39 39 38 38 38 38 38 37 37 36 36
32 32 33 33 34 34 35 36 36 36 36 37 38 38 39 39 39 40 40 40 41 41 41 41 42 42 42 42 42 42 42 42 42 42 42 41 40 40 41 40 39 39 38
33 34 35 35 35 35 36 37 38 38 38 39 40 40 40 40 41 41 42 42 43 43 43 43 43 44 44 44 44 45 45 45 45 44 45 45 44 44 43 43 43 42 41
34 35 36 36 36 37 38 38 40 40 40 41 41 42 43 43 43 43 44 45 45 45 45 46 46 46 46 47 47 47 48 48 48 48 47 47 47 47 46 46 46 45 45
35 36 37 37 38 39 40 40 41 42 42 42 42 43 44 45 46 46 46 46 46 47 47 47 48 48 49 49 50 50 51 51 51 50 50 49 49 49 49 49 48 48 48
36 37 38 39 40 40 41 41 42 43 43 43 44 44 45 46 47 47 47 47 48 49 49 49 50 51 51 52 52 52 53 54 53 53 52 52 51 51 51 51 51 50 50
38 38 39 39 40 41 42 43 42 43 44 44 46 47 47 48 49 49 49 49 50 50 51 51 52 53 54 55 54 54 54 55 55 55 55 55 55 54 53 53 53 53 52
39 40 40 41 41 42 43 43 44 45 46 46 47 49 50 50 51 52 52 52 52 52 53 54 54 54 55 55 55 55 55 56 56 57 57 57 57 57 56 56 55 55 55
39 39 40 41 42 42 43 44 44 45 47 48 48 50 51 51 52 53 53 54 55 55 55 56 56 55 55 55 55 56 56 56 56 56 57 58 58 57 57 57 57 57 57
39 40 40 41 42 42 43 44 44 46 47 48 50 50 51 51 53 55 55 55 56 56 57 56 56 57 57 56 57 57 57 57 57 56 56 56 56 57 57 57 57 57 58
39 39 40 41 42 43 44 45 46 47 48 49 50 51 51 51 53 54 55 56 56 57 57 57 58 58 58 58 58 57 57 57 57 57 56 56 57 58 57 57 58 57 58
38 39 40 41 42 43 44 45 47 47 48 49 50 51 52 52 53 53 54 56 56 58 57 57 58 58 58 58 58 58 57 57 57 58 57 57 57 58 59 58 58 59 59
Wind_Direction
263 265 265 264 264 263 261 260 261 262 261 260 259 258 257 256 258 257 256 254 252 253 253 253 253 253 252 249 246 243 239 240 242 241 239 240 237 230 225 225 223 218 216
263 263 263 264 264 264 263 263 262 262 259 258 259 258 257 258 258 258 256 255 255 253 252 251 252 253 252 249 248 245 241 244 248 244 242 242 241 238 234 234 232 228 227
262 262 263 264 265 266 265 263 262 261 260 259 258 258 257 258 259 259 256 257 257 256 254 253 253 254 254 253 251 248 246 246 249 248 246 245 242 241 240 237 235 233 231
264 263 263 264 265 265 264 263 261 260 260 259 258 258 259 259 258 259 259 260 259 258 256 256 256 255 255 254 254 252 251 249 249 250 250 250 247 245 243 240 237 235 233
266 265 264 265 265 265 264 263 262 261 261 260 259 259 259 259 258 257 259 260 260 259 258 258 257 257 257 256 255 254 254 253 251 251 251 249 250 247 244 241 240 237 237
267 266 265 266 266 265 264 262 262 261 261 262 261 261 260 259 258 258 258 260 261 260 259 258 258 259 259 258 257 256 255 254 252 251 251 250 249 247 245 243 241 240 239
267 266 267 265 265 265 264 263 262 262 262 262 263 262 261 260 260 259 259 259 260 259 260 259 258 259 259 259 259 259 258 256 254 251 251 250 249 249 246 244 243 243 242
268 267 266 265 265 265 265 265 265 265 263 263 264 263 261 261 260 260 260 261 261 260 259 259 258 258 259 259 259 259 259 257 255 253 251 250 251 250 248 246 245 245 245
268 267 266 266 266 266 266 266 266 266 265 265 264 263 262 261 260 260 260 260 260 261 260 260 259 258 258 259 259 258 259 257 255 254 252 251 251 251 251 250 248 246 246
268 267 266 266 266 266 267 267 267 267 267 266 265 263 262 261 260 260 259 259 260 260 261 260 259 259 259 259 259 259 258 257 255 254 252 251 252 251 252 252 252 250 248
267 266 266 266 266 267 267 267 267 267 267 266 265 264 263 262 261 259 258 258 259 260 260 260 259 259 259 259 259 259 258 258 257 254 252 252 252 252 251 252 252 254 251
266 266 266 266 267 267 267 267 267 267 267 266 266 265 264 263 262 260 257 257 258 259 260 260 259 259 260 259 259 259 259 258 257 255 253 253 252 252 252 252 252 253 253
267 267 267 267 268 268 268 268 268 267 265 265 265 265 265 264 263 262 259 258 258 258 259 260 260 259 259 260 259 259 259 259 257 256 254 253 253 253 252 252 252 253 253
267 267 268 268 268 268 268 268 268 266 264 264 265 265 266 266 265 263 261 259 259 260 260 260 261 260 260 260 260 260 259 258 257 256 255 254 254 254 253 253 253 253 253
268 268 268 269 269 268 268 267 267 266 265 265 265 265 266 266 266 264 263 262 261 261 261 261 261 261 261 261 260 260 259 258 258 257 257 255 254 254 254 254 253 253 252
268 268 269 270 270 269 268 267 267 267 266 266 265 265 266 267 267 266 264 263 262 262 263 263 263 263 262 262 261 260 260 259 258 257 257 256 255 254 253 253 253 253 252
268 269 269 269 269 269 268 267 266 267 267 267 267 267 267 268 268 267 265 264 264 263 264 264 264 264 264 263 262 261 260 259 259 258 257 256 256 255 254 254 253 253 251
269 269 269 268 268 268 268 268 268 267 267 267 268 268 268 269 269 268 266 264 264 264 265 265 264 264 265 264 264 263 262 261 260 258 257 257 256 255 254 254 254 253 251
271 270 269 268 268 268 268 268 268 268 268 268 269 269 270 270 270 269 267 266 265 265 265 266 266 265 265 265 265 264 264 262 261 259 258 257 256 255 254 254 254 253 251
271 271 269 268 268 268 268 268 268 268 269 269 270 270 271 271 271 270 269 268 267 266 266 267 267 266 266 266 266 265 264 262 261 259 258 257 256 255 254 254 254 253 251
272 271 270 269 269 268 268 267 268 269 268 269 270 271 272 272 271 271 270 269 269 268 268 268 268 267 267 266 266 265 265 263 261 260 258 257 256 255 255 254 254 253 251
272 272 271 269 269 269 268 268 269 270 270 270 272 272 273 273 272 272 271 270 269 269 270 269 269 268 267 266 266 265 264 263 261 260 258 257 257 256 255 254 254 253 251
273 272 271 269 269 270 270 270 270 271 272 272 273 274 274 274 273 273 273 271 270 269 270 270 269 268 267 266 266 266 264 262 261 259 258 257 256 256 256 255 254 253 251
273 272 271 270 270 271 271 271 272 273 273 274 274 275 274 274 274 274 273 272 270 269 270 269 269 268 267 266 267 267 266 264 261 259 256 256 255 255 256 255 254 252 251
274 272 271 270 270 272 272 273 274 275 275 276 276 276 275 276 277 276 274 273 272 270 270 270 269 269 268 267 266 267 266 265 263 260 256 255 255 255 255 255 253 252 250
275 274 272 272 273 274 275 275 275 275 276 277 277 276 276 277 277 277 276 274 273 272 271 270 270 269 268 267 267 267 266 264 262 260 258 256 255 255 255 254 252 251 250
Height
5834 5834 5834 5834 5834 5834 5834 5835 5835 5835 5835 5835 5836 5836 5836 5836 5837 5837 5837 5837 5837 5837 5837 5837 5838 5838 5838 5839 5839 5840 5840 5841 5841 5842 5842 5843 5843 5843 5844 5844 5845 5845 5846
5831 5831 5831 5831 5831 5832 5832 5832 5832 5833 5833 5833 5833 5833 5834 5834 5834 5835 5835 5835 5835 5835 5835 5836 5836 5836 5836 5837 5837 5838 5839 5839 5840 5840 5841 5841 5842 5842 5843 5843 5844 5844 5845
5828 5828 5828 5828 5828 5829 5829 5829 5829 5830 5830 5830 5830 5831 5831 5831 5832 5832 5832 5832 5833 5833 5833 5833 5834 5834 5834 5835 5835 5836 5837 5837 5838 5838 5839 5840 5840 5840 5841 5841 5842 5843 5843
5824 5824 5825 5825 5825 5825 5825 5825 5825 5826 5826 5827 5827 5827 5828 5828 5829 5829 5829 5829 5830 5830 5830 5831 5831 5831 5832 5832 5833 5833 5834 5835 5836 5836 5837 5837 5838 5838 5839 5839 5840 5841 5841
5820 5820 5821 5821 5821 5821 5821 5821 5821 5822 5822 5823 5823 5824 5824 5824 5825 5825 5826 5826 5826 5827 5827 5827 5828 5828 5829 5829 5830 5831 5831 5832 5833 5833 5834 5835 5835 5836 5837 5837 5838 5838 5839
5816 5816 5816 5816 5816 5816 5816 5817 5817 5817 5818 5818 5819 5819 5820 5820 5821 5821 5822 5822 5823 5823 5823 5824 5824 5825 5825 5826 5826 5827 5828 5829 5829 5830 5831 5832 5832 5833 5834 5835 5835 5836 5836
5811 5811 5811 5811 5811 5812 5812 5812 5812 5813 5813 5813 5814 5814 5815 5815 5816 5816 5817 5818 5818 5819 5819 5819 5820 5821 5821 5822 5822 5823 5824 5825 5825 5826 5827 5828 5829 5830 5830 5831 5832 5833 5833
5806 5806 5806 5806 5806 5806 5806 5807 5807 5807 5807 5808 5808 5809 5809 5810 5810 5811 5812 5812 5813 5814 5814 5815 5815 5816 5817 5817 5818 5819 5819 5820 5821 5822 5823 5824 5825 5826 5826 5827 5828 5829 5830
5801 5801 5801 5801 5801 5801 5801 5801 5801 5801 5801 5802 5802 5802 5803 5803 5804 5805 5806 5807 5807 5808 5809 5809 5810 5811 5811 5812 5813 5814 5814 5815 5816 5817 5819 5820 5821 5821 5822 5823 5824 5825 5826
5795 5795 5795 5795 5795 5795 5795 5795 5795 5795 5795 5795 5795 5795 5796 5796 5797 5798 5799 5800 5801 5802 5802 5803 5804 5804 5805 5806 5807 5808 5809 5810 5811 5812 5813 5814 5815 5816 5817 5818 5820 5821 5821
5789 5788 5789 5789 5788 5788 5788 5788 5788 5788 5788 5788 5788 5788 5788 5789 5790 5791 5792 5793 5793 5794 5795 5796 5797 5798 5799 5800 5801 5802 5803 5804 5805 5806 5807 5808 5810 5811 5812 5813 5814 5815 5816
5782 5782 5782 5782 5782 5781 5781 5781 5780 5780 5780 5780 5781 5781 5781 5781 5782 5783 5784 5785 5786 5787 5788 5789 5789 5791 5792 5793 5794 5795 5796 5797 5798 5799 5800 5802 5803 5804 5806 5807 5808 5809 5811
5776 5775 5775 5775 5774 5774 5774 5773 5773 5773 5773 5773 5773 5773 5774 5774 5774 5775 5776 5777 5778 5779 5780 5781 5782 5783 5784 5785 5786 5787 5788 5789 5791 5792 5793 5794 5796 5797 5799 5800 5801 5803 5804
5769 5768 5767 5767 5767 5766 5766 5765 5765 5765 5765 5765 5766 5766 5766 5766 5766 5767 5767 5768 5769 5770 5771 5772 5773 5774 5775 5777 5778 5779 5780 5781 5782 5784 5785 5786 5788 5789 5791 5792 5794 5795 5797
5761 5761 5760 5759 5759 5758 5758 5757 5757 5757 5757 5757 5757 5757 5757 5757 5757 5758 5758 5759 5760 5761 5762 5763 5764 5765 5766 5767 5768 5770 5771 5772 5773 5775 5776 5778 5779 5780 5782 5784 5785 5787 5789
5753 5753 5752 5751 5750 5750 5749 5749 5749 5749 5749 5749 5749 5749 5749 5749 5748 5749 5749 5750 5751 5751 5752 5753 5754 5755 5756 5757 5759 5760 5761 5762 5764 5765 5766 5768 5769 5771 5773 5775 5776 5778 5780
5745 5744 5743 5742 5742 5741 5741 5740 5740 5740 5740 5739 5739 5739 5739 5739 5739 5739 5739 5739 5740 5741 5742 5743 5744 5745 5746 5747 5748 5749 5750 5752 5753 5754 5756 5757 5759 5761 5763 5764 5766 5768 5770
5736 5735 5734 5734 5733 5732 5732 5731 5730 5730 5730 5730 5729 5729 5729 5729 5729 5728 5728 5729 5729 5730 5731 5732 5732 5733 5734 5735 5736 5737 5738 5740 5741 5743 5744 5745 5747 5749 5751 5753 5755 5758 5760
5726 5726 5725 5724 5723 5722 5722 5721 5721 5720 5720 5719 5719 5718 5718 5718 5717 5717 5717 5717 5718 5718 5719 5720 5720 5721 5722 5722 5723 5724 5725 5726 5728 5729 5731 5733 5735 5737 5739 5741 5744 5746 5748
5717 5716 5715 5714 5713 5712 5712 5711 5710 5710 5709 5709 5708 5707 5707 5706 5705 5705 5705 5705 5705 5706 5706 5707 5707 5707 5708 5709 5709 5710 5710 5712 5713 5715 5717 5719 5721 5723 5725 5728 5731 5733 5735
5706 5705 5704 5703 5702 5702 5701 5700 5699 5698 5698 5697 5696 5695 5694 5694 5693 5692 5692 5692 5692 5693 5693 5693 5693 5693 5693 5694 5695 5695 5696 5697 5698 5699 5701 5703 5706 5709 5711 5714 5717 5719 5722
5696 5694 5693 5692 5691 5690 5689 5688 5688 5687 5686 5684 5683 5682 5681 5680 5679 5679 5678 5678 5678 5678 5678 5678 5678 5678 5678 5678 5679 5680 5681 5682 5683 5684 5685 5687 5690 5692 5695 5698 5701 5704 5707
5685 5683 5682 5681 5680 5679 5677 5677 5676 5674 5673 5672 5670 5669 5667 5666 5665 5664 5663 5663 5663 5663 5662 5662 5662 5662 5662 5662 5662 5663 5664 5666 5668 5670 5670 5672 5673 5676 5679 5681 5684 5688 5691
5674 5672 5671 5670 5669 5667 5666 5665 5664 5662 5661 5659 5657 5655 5653 5651 5650 5649 5648 5647 5647 5647 5646 5646 5645 5646 5646 5647 5646 5646 5647 5648 5650 5653 5656 5656 5657 5660 5662 5665 5668 5671 5675
5663 5662 5660 5659 5657 5656 5655 5653 5651 5650 5648 5646 5643 5641 5639 5637 5635 5633 5632 5632 5631 5630 5630 5629 5629 5629 5629 5630 5630 5630 5630 5631 5631 5634 5639 5642 5643 5644 5646 5648 5651 5654 5658
5653 5651 5649 5648 5646 5644 5643 5641 5639 5637 5634 5632 5630 5628 5625 5623 5621 5619 5617 5616 5614 5614 5613 5612 5612 5612 5612 5612 5612 5612 5613 5614 5615 5617 5620 5624 5627 5628 5630 5632 5635 5637 5641